This is the latest recevied weather packets stored in our database for station/object K7AEL. If no packets are shown the sender has not sent any weather packets the latest 10 day(s).
| Time | Temp. | Humidity | Pressure | Rain* | Wind** | Luminosity | Snow |
|---|---|---|---|---|---|---|---|
| 1777384349 | 13.33° C | 39% | 1017.9 hPa | 0 mm | - | 30 W/m² | - |
| 1777383438 | 12.78° C | 42% | 1017.5 hPa | 0 mm | - | 26 W/m² | - |
| 1777383134 | 12.78° C | 41% | 1017.6 hPa | 0 mm | - | 24 W/m² | - |
| 1777382831 | 12.22° C | 42% | 1017.3 hPa | 0 mm | - | 23 W/m² | - |
| 1777381618 | 11.67° C | 42% | 1017.3 hPa | 0 mm | - | 15 W/m² | - |
| 1777381315 | 11.67° C | 43% | 1017.3 hPa | 0 mm | - | 12 W/m² | - |
| 1777379493 | 12.22° C | 41% | 1016.8 hPa | 0 mm | - | 1 W/m² | - |
| 1777379188 | 12.22° C | 40% | 1017 hPa | 0 mm | - | 0 W/m² | - |
| 1777378883 | 12.78° C | 39% | 1016.7 hPa | 0 mm | - | 0 W/m² | - |
| 1777378579 | 12.78° C | 39% | 1016.6 hPa | 0 mm | - | 0 W/m² | - |
| 1777378276 | 12.78° C | 39% | 1016.7 hPa | 0 mm | - | 0 W/m² | - |
| 1777377974 | 12.78° C | 38% | 1016.5 hPa | 0 mm | - | 0 W/m² | - |
| 1777377668 | 12.78° C | 39% | 1016.5 hPa | 0 mm | - | 0 W/m² | - |
| 1777377364 | 12.22° C | 40% | 1016.4 hPa | 0 mm | - | 0 W/m² | - |
| 1777377060 | 11.67° C | 41% | 1016.3 hPa | 0 mm | - | 0 W/m² | - |
| 1777376150 | 11.67° C | 41% | 1016.4 hPa | 0 mm | - | 0 W/m² | - |
| 1777375545 | 12.22° C | 40% | 1016.4 hPa | 0 mm | - | 0 W/m² | - |
| 1777375241 | 12.22° C | 41% | 1016.1 hPa | 0 mm | - | 0 W/m² | - |
| 1777374937 | 12.22° C | 41% | 1016 hPa | 0 mm | - | 0 W/m² | - |
| 1777374633 | 12.78° C | 40% | 1016.4 hPa | 0 mm | - | 0 W/m² | - |
| 1777373110 | 12.78° C | 40% | 1016.3 hPa | 0 mm | - | 0 W/m² | - |
| 1777372504 | 13.33° C | 39% | 1016.4 hPa | 0 mm | - | 0 W/m² | - |
| 1777372202 | 13.33° C | 39% | 1016.3 hPa | 0 mm | - | 0 W/m² | - |
| 1777371898 | 13.33° C | 39% | 1016.5 hPa | 0 mm | - | 0 W/m² | - |
| 1777371595 | 13.33° C | 39% | 1016.3 hPa | 0 mm | - | 0 W/m² | - |
* Rain latest hour (hover to see other rain measurements)
** Current wind speed in m/s (hover to see current wind gust speed)